Time,TemperatureF,DewpointF,PressureIn,WindDirection,WindDirectionDegrees,WindSpeedMPH,WindSpeedGustMPH,Humidity,HourlyPrecipIn,Conditions,Clouds,dailyrainin,SoftwareType,DateUTC
2013-03-13 00:00:00,21.0,-99.9,-100.00,West,281,11.0,18.0,-999,-99.99,,,-99.99,,2013-03-13 05:00:00,
2013-03-13 00:53:00,21.0,-99.9,-100.00,West,281,11.0,18.0,-999,-99.99,,,-99.99,,2013-03-13 05:53:00,
2013-03-13 01:00:00,20.0,-99.9,-100.00,WSW,242,8.0,13.0,-999,-99.99,,,-99.99,,2013-03-13 06:00:00,
2013-03-13 01:53:00,20.0,-99.9,-100.00,WSW,242,8.0,13.0,-999,-99.99,,,-99.99,,2013-03-13 06:53:00,
2013-03-13 02:00:00,19.0,-99.9,-100.00,South,169,2.0,13.0,-999,-99.99,,,-99.99,,2013-03-13 07:00:00,
2013-03-13 02:33:00,19.0,-99.9,-100.00,South,169,2.0,13.0,-999,-99.99,,,-99.99,,2013-03-13 07:33:00,
2013-03-13 02:43:00,19.0,-99.9,-100.00,South,169,2.0,13.0,-999,-99.99,,,-99.99,,2013-03-13 07:43:00,
2013-03-13 02:53:00,19.0,-99.9,-100.00,South,169,2.0,13.0,-999,-99.99,,,-99.99,,2013-03-13 07:53:00,
2013-03-13 03:00:00,18.0,-99.9,-100.00,SW,227,4.0,9.0,-999,-99.99,,,-99.99,,2013-03-13 08:00:00,
2013-03-13 03:33:00,18.0,-99.9,-100.00,SW,227,4.0,9.0,-999,-99.99,,,-99.99,,2013-03-13 08:33:00,
2013-03-13 03:43:00,18.0,-99.9,-100.00,SW,227,4.0,9.0,-999,-99.99,,,-99.99,,2013-03-13 08:43:00,
2013-03-13 03:54:00,18.0,-99.9,-100.00,SW,227,4.0,9.0,-999,-99.99,,,-99.99,,2013-03-13 08:54:00,
2013-03-13 04:00:00,17.0,-99.9,-100.00,West,267,4.0,7.0,-999,-99.99,,,-99.99,,2013-03-13 09:00:00,
2013-03-13 04:32:00,17.0,-99.9,-100.00,West,267,4.0,7.0,-999,-99.99,,,-99.99,,2013-03-13 09:32:00,
2013-03-13 04:42:00,17.0,-99.9,-100.00,West,267,4.0,7.0,-999,-99.99,,,-99.99,,2013-03-13 09:42:00,
2013-03-13 04:53:00,17.0,-99.9,-100.00,West,267,4.0,7.0,-999,-99.99,,,-99.99,,2013-03-13 09:53:00,
2013-03-13 05:00:00,16.0,-99.9,-100.00,WNW,284,4.0,13.0,-999,-99.99,,,-99.99,,2013-03-13 10:00:00,
2013-03-13 05:32:00,16.0,-99.9,-100.00,WNW,284,4.0,13.0,-999,-99.99,,,-99.99,,2013-03-13 10:32:00,
2013-03-13 05:42:00,16.0,-99.9,-100.00,WNW,284,4.0,13.0,-999,-99.99,,,-99.99,,2013-03-13 10:42:00,
2013-03-13 05:52:00,16.0,-99.9,-100.00,WNW,284,4.0,13.0,-999,-99.99,,,-99.99,,2013-03-13 10:52:00,
2013-03-13 06:00:00,14.0,-99.9,-100.00,West,261,6.0,7.0,-999,-99.99,,,-99.99,,2013-03-13 11:00:00,
2013-03-13 06:32:00,14.0,-99.9,-100.00,West,261,6.0,7.0,-999,-99.99,,,-99.99,,2013-03-13 11:32:00,
2013-03-13 06:42:00,14.0,-99.9,-100.00,West,261,6.0,7.0,-999,-99.99,,,-99.99,,2013-03-13 11:42:00,
2013-03-13 06:53:00,14.0,-99.9,-100.00,West,261,6.0,7.0,-999,-99.99,,,-99.99,,2013-03-13 11:53:00,
2013-03-13 07:00:00,14.0,-99.9,-100.00,West,259,4.0,7.0,-999,-99.99,,,-99.99,,2013-03-13 12:00:00,
2013-03-13 07:33:00,14.0,-99.9,-100.00,West,259,4.0,7.0,-999,-99.99,,,-99.99,,2013-03-13 12:33:00,
2013-03-13 07:42:00,14.0,-99.9,-100.00,West,259,4.0,7.0,-999,-99.99,,,-99.99,,2013-03-13 12:42:00,
2013-03-13 07:53:00,14.0,-99.9,-100.00,West,259,4.0,7.0,-999,-99.99,,,-99.99,,2013-03-13 12:53:00,
2013-03-13 08:00:00,14.0,-99.9,-100.00,SSW,202,2.0,6.0,-999,-99.99,,,-99.99,,2013-03-13 13:00:00,
2013-03-13 08:33:00,14.0,-99.9,-100.00,SSW,202,2.0,6.0,-999,-99.99,,,-99.99,,2013-03-13 13:33:00,
2013-03-13 08:44:00,14.0,-99.9,-100.00,SSW,202,2.0,6.0,-999,-99.99,,,-99.99,,2013-03-13 13:44:00,
2013-03-13 08:53:00,14.0,-99.9,-100.00,SSW,202,2.0,6.0,-999,-99.99,,,-99.99,,2013-03-13 13:53:00,
2013-03-13 09:00:00,20.0,-99.9,-100.00,NNE,21,0.0,13.0,-999,-99.99,,,-99.99,,2013-03-13 14:00:00,
2013-03-13 09:34:00,20.0,-99.9,-100.00,NNE,21,0.0,13.0,-999,-99.99,,,-99.99,,2013-03-13 14:34:00,
2013-03-13 09:43:00,20.0,-99.9,-100.00,NNE,21,0.0,13.0,-999,-99.99,,,-99.99,,2013-03-13 14:43:00,
2013-03-13 09:53:00,20.0,-99.9,-100.00,NNE,21,0.0,13.0,-999,-99.99,,,-99.99,,2013-03-13 14:53:00,
2013-03-13 10:00:00,24.0,-99.9,-100.00,NE,49,0.0,13.0,-999,-99.99,,,-99.99,,2013-03-13 15:00:00,
2013-03-13 10:33:00,24.0,-99.9,-100.00,NE,49,0.0,13.0,-999,-99.99,,,-99.99,,2013-03-13 15:33:00,
2013-03-13 10:43:00,24.0,-99.9,-100.00,NE,49,0.0,13.0,-999,-99.99,,,-99.99,,2013-03-13 15:43:00,
2013-03-13 10:53:00,24.0,-99.9,-100.00,NE,49,0.0,13.0,-999,-99.99,,,-99.99,,2013-03-13 15:53:00,
2013-03-13 11:00:00,25.0,-99.9,-100.00,NW,324,4.0,12.0,-999,-99.99,,,-99.99,,2013-03-13 16:00:00,
2013-03-13 11:33:00,25.0,-99.9,-100.00,NW,324,4.0,12.0,-999,-99.99,,,-99.99,,2013-03-13 16:33:00,
2013-03-13 11:42:00,25.0,-99.9,-100.00,NW,324,4.0,12.0,-999,-99.99,,,-99.99,,2013-03-13 16:42:00,
2013-03-13 11:52:00,25.0,-99.9,-100.00,NW,324,4.0,12.0,-999,-99.99,,,-99.99,,2013-03-13 16:52:00,
2013-03-13 12:00:00,29.0,-99.9,-100.00,SW,236,0.0,5.0,-999,-99.99,,,-99.99,,2013-03-13 17:00:00,
2013-03-13 12:33:00,29.0,-99.9,-100.00,SW,236,0.0,5.0,-999,-99.99,,,-99.99,,2013-03-13 17:33:00,
2013-03-13 12:43:00,29.0,-99.9,-100.00,SW,236,0.0,5.0,-999,-99.99,,,-99.99,,2013-03-13 17:43:00,
2013-03-13 12:53:00,29.0,-99.9,-100.00,SW,236,0.0,5.0,-999,-99.99,,,-99.99,,2013-03-13 17:53:00,
2013-03-13 13:00:00,27.0,-99.9,-100.00,SSW,196,8.0,9.0,-999,-99.99,,,-99.99,,2013-03-13 18:00:00,
2013-03-13 13:34:00,27.0,-99.9,-100.00,SSW,196,8.0,9.0,-999,-99.99,,,-99.99,,2013-03-13 18:34:00,
2013-03-13 13:43:00,27.0,-99.9,-100.00,SSW,196,8.0,9.0,-999,-99.99,,,-99.99,,2013-03-13 18:43:00,
2013-03-13 13:52:00,27.0,-99.9,-100.00,SSW,196,8.0,9.0,-999,-99.99,,,-99.99,,2013-03-13 18:52:00,
2013-03-13 14:00:00,29.0,-99.9,-100.00,SSW,210,3.0,7.0,-999,-99.99,,,-99.99,,2013-03-13 19:00:00,
2013-03-13 14:32:00,29.0,-99.9,-100.00,SSW,210,3.0,7.0,-999,-99.99,,,-99.99,,2013-03-13 19:32:00,
2013-03-13 14:43:00,29.0,-99.9,-100.00,SSW,210,3.0,7.0,-999,-99.99,,,-99.99,,2013-03-13 19:43:00,
2013-03-13 14:53:00,29.0,-99.9,-100.00,SSW,210,3.0,7.0,-999,-99.99,,,-99.99,,2013-03-13 19:53:00,
2013-03-13 15:00:00,32.0,-99.9,-100.00,South,188,6.0,7.0,-999,-99.99,,,-99.99,,2013-03-13 20:00:00,
2013-03-13 15:33:00,32.0,-99.9,-100.00,South,188,6.0,7.0,-999,-99.99,,,-99.99,,2013-03-13 20:33:00,
2013-03-13 15:42:00,32.0,-99.9,-100.00,South,188,6.0,7.0,-999,-99.99,,,-99.99,,2013-03-13 20:42:00,
2013-03-13 15:53:00,32.0,-99.9,-100.00,South,188,6.0,7.0,-999,-99.99,,,-99.99,,2013-03-13 20:53:00,
2013-03-13 16:00:00,30.0,-99.9,-100.00,South,170,7.0,10.0,-999,-99.99,,,-99.99,,2013-03-13 21:00:00,
2013-03-13 16:34:00,30.0,-99.9,-100.00,South,170,7.0,10.0,-999,-99.99,,,-99.99,,2013-03-13 21:34:00,
2013-03-13 16:42:00,30.0,-99.9,-100.00,South,170,7.0,10.0,-999,-99.99,,,-99.99,,2013-03-13 21:42:00,
2013-03-13 16:52:00,30.0,-99.9,-100.00,South,170,7.0,10.0,-999,-99.99,,,-99.99,,2013-03-13 21:52:00,
2013-03-13 17:00:00,30.0,-99.9,-100.00,South,172,5.0,6.0,-999,-99.99,,,-99.99,,2013-03-13 22:00:00,
2013-03-13 17:33:00,30.0,-99.9,-100.00,South,172,5.0,6.0,-999,-99.99,,,-99.99,,2013-03-13 22:33:00,
2013-03-13 17:43:00,30.0,-99.9,-100.00,South,172,5.0,6.0,-999,-99.99,,,-99.99,,2013-03-13 22:43:00,
2013-03-13 17:53:00,30.0,-99.9,-100.00,South,172,5.0,6.0,-999,-99.99,,,-99.99,,2013-03-13 22:53:00,
2013-03-13 18:00:00,31.0,-99.9,-100.00,SSW,197,3.0,5.0,-999,-99.99,,,-99.99,,2013-03-13 23:00:00,
2013-03-13 18:32:00,31.0,-99.9,-100.00,SSW,197,3.0,5.0,-999,-99.99,,,-99.99,,2013-03-13 23:32:00,
2013-03-13 18:43:00,31.0,-99.9,-100.00,SSW,197,3.0,5.0,-999,-99.99,,,-99.99,,2013-03-13 23:43:00,
2013-03-13 18:53:00,31.0,-99.9,-100.00,SSW,197,3.0,5.0,-999,-99.99,,,-99.99,,2013-03-13 23:53:00,
2013-03-13 19:00:00,29.0,-99.9,-100.00,ESE,121,2.0,4.0,-999,-99.99,,,-99.99,,2013-03-14 00:00:00,
2013-03-13 19:33:00,29.0,-99.9,-100.00,ESE,121,2.0,4.0,-999,-99.99,,,-99.99,,2013-03-14 00:33:00,
2013-03-13 19:43:00,29.0,-99.9,-100.00,ESE,121,2.0,4.0,-999,-99.99,,,-99.99,,2013-03-14 00:43:00,
2013-03-13 19:53:00,29.0,-99.9,-100.00,ESE,121,2.0,4.0,-999,-99.99,,,-99.99,,2013-03-14 00:53:00,
2013-03-13 20:00:00,27.0,-99.9,-100.00,ESE,118,1.0,2.0,-999,-99.99,,,-99.99,,2013-03-14 01:00:00,
2013-03-13 20:33:00,27.0,-99.9,-100.00,ESE,118,1.0,2.0,-999,-99.99,,,-99.99,,2013-03-14 01:33:00,
2013-03-13 20:42:00,27.0,-99.9,-100.00,ESE,118,1.0,2.0,-999,-99.99,,,-99.99,,2013-03-14 01:42:00,
2013-03-13 20:53:00,27.0,-99.9,-100.00,ESE,118,1.0,2.0,-999,-99.99,,,-99.99,,2013-03-14 01:53:00,
2013-03-13 21:33:00,26.0,-99.9,-100.00,SSE,149,0.0,0.0,-999,-99.99,,,-99.99,,2013-03-14 02:33:00,
2013-03-13 21:42:00,26.0,-99.9,-100.00,SSE,149,0.0,0.0,-999,-99.99,,,-99.99,,2013-03-14 02:42:00,
2013-03-13 21:52:00,26.0,-99.9,-100.00,SSE,149,0.0,0.0,-999,-99.99,,,-99.99,,2013-03-14 02:52:00,
2013-03-13 22:02:00,25.0,-99.9,-100.00,North,11,3.0,3.0,-999,-99.99,,,-99.99,,2013-03-14 03:02:00,
2013-03-13 22:33:00,25.0,-99.9,-100.00,SSE,152,0.0,2.0,-999,-99.99,,,-99.99,,2013-03-14 03:33:00,
2013-03-13 22:43:00,25.0,-99.9,-100.00,SSE,152,0.0,2.0,-999,-99.99,,,-99.99,,2013-03-14 03:43:00,
2013-03-13 22:53:00,25.0,-99.9,-100.00,SSE,152,0.0,2.0,-999,-99.99,,,-99.99,,2013-03-14 03:53:00,
2013-03-13 23:00:00,23.0,-99.9,-100.00,ESE,103,2.0,5.0,-999,-99.99,,,-99.99,,2013-03-14 04:00:00,
2013-03-13 23:33:00,23.0,-99.9,-100.00,ESE,103,2.0,5.0,-999,-99.99,,,-99.99,,2013-03-14 04:33:00,
2013-03-13 23:42:00,23.0,-99.9,-100.00,ESE,103,2.0,5.0,-999,-99.99,,,-99.99,,2013-03-14 04:42:00,
2013-03-13 23:53:00,23.0,-99.9,-100.00,ESE,103,2.0,5.0,-999,-99.99,,,-99.99,,2013-03-14 04:53:00,